RH
31 32 29 27 25 22 19 20 18 16 14 12 11 9 8 11 13 15 21 26 37 49 53 59 61 54 54 60 64 74 79 95 98 96 96 96 92 90 88 91 92 91 91
44 44 40 34 31 28 23 20 16 14 12 12 10 9 10 18 19 22 30 29 37 50 60 64 62 62 56 57 63 54 57 86 91 100 99 98 95 93 93 91 90 90 90
43 46 45 43 36 32 28 24 20 16 14 12 10 10 13 27 28 33 44 42 38 50 66 68 66 64 59 54 58 53 64 74 86 91 78 100 100 100 99 95 93 92 91
39 43 45 47 39 35 32 29 22 16 14 12 10 15 33 43 43 45 51 55 50 60 73 73 66 61 54 54 57 75 41 68 74 69 72 94 88 94 93 89 87 90 92
40 42 46 50 42 36 34 31 23 17 15 12 11 45 64 62 61 62 57 64 66 60 65 68 70 64 60 62 53 48 94 65 65 88 88 64 49 57 62 65 71 76 76
36 43 50 52 49 40 36 33 24 20 17 13 20 69 81 81 79 77 76 81 85 82 82 81 83 86 80 75 97 98 93 97 90 80 73 52 45 49 52 49 48 51 62
35 42 48 51 50 43 38 32 25 21 18 14 18 80 88 89 87 87 89 87 85 86 87 87 85 86 81 78 76 76 69 71 60 59 66 56 52 55 50 47 46 46 48
35 45 51 54 52 48 41 34 28 24 22 18 19 46 80 89 91 92 93 91 86 87 86 83 80 78 79 77 76 74 76 73 72 73 68 59 58 66 66 65 61 54 49
36 44 52 57 56 51 42 37 32 29 26 24 23 25 48 78 70 91 94 93 92 90 86 82 79 76 73 75 75 76 72 66 67 87 79 79 78 84 84 82 91 82 87
36 42 50 57 60 57 49 44 38 35 32 30 28 28 36 45 67 74 85 88 87 81 76 80 83 76 75 76 79 72 76 67 65 64 65 72 97 96 98 100 96 98 91
33 39 45 53 60 62 58 53 46 41 38 36 34 31 38 51 74 82 72 54 40 35 31 26 27 66 77 78 81 83 80 77 77 69 84 100 99 100 100 100 99 98 99
32 36 43 48 52 56 56 55 53 48 46 43 42 39 39 47 58 66 65 47 37 37 38 53 56 53 68 77 80 80 78 78 71 67 62 67 47 38 53 50 61 93 99
29 31 36 41 47 52 52 51 51 51 50 48 46 47 49 52 56 60 65 63 58 43 48 66 83 87 88 88 86 84 81 76 65 54 46 40 26 17 13 14 14 19 42
33 28 29 35 39 43 46 49 52 52 50 47 45 43 44 48 53 57 58 62 58 49 46 47 61 82 86 86 84 79 75 65 42 26 21 20 19 19 19 18 16 16 17
40 35 29 24 25 32 38 42 44 46 47 48 50 52 52 53 54 56 60 62 66 63 53 50 51 73 85 82 78 67 45 35 32 29 27 25 26 28 31 30 27 26 20
46 43 36 28 23 21 23 28 35 43 47 51 52 53 55 56 57 58 58 59 61 65 67 56 54 54 52 51 50 45 40 38 37 36 33 29 29 34 39 40 37 33 30
50 50 46 38 27 20 18 19 24 30 36 41 46 48 52 53 56 59 61 61 60 61 61 55 52 51 49 49 50 51 49 47 45 42 37 33 32 31 33 42 41 40 38
52 52 52 49 40 30 20 16 15 16 19 24 31 36 39 45 46 49 50 52 55 59 58 48 44 41 42 42 39 37 37 37 37 40 44 42 39 41 49 48 43 39 36
51 52 54 54 48 40 31 22 18 15 14 16 18 19 22 26 23 26 26 29 36 42 43 35 31 28 25 27 23 22 22 25 28 31 32 37 42 43 40 40 45 45 38
53 55 55 55 54 47 40 30 21 17 15 14 14 15 15 13 12 13 15 18 23 26 32 30 24 24 22 19 16 12 12 13 12 13 13 15 23 32 41 45 43 44 44
56 58 58 57 56 54 49 36 24 20 23 28 29 26 22 18 14 12 11 12 18 22 27 27 21 18 16 21 24 19 16 16 18 18 19 20 20 20 20 20 19 18 20
59 61 60 61 58 56 52 37 28 30 32 33 34 30 23 20 17 15 13 13 15 18 20 22 22 20 17 19 23 26 24 19 18 20 20 17 18 19 20 21 18 16 15
68 68 67 66 62 57 53 40 33 32 36 47 50 48 33 26 26 22 18 15 15 17 17 19 20 19 21 22 25 25 28 27 24 24 26 24 23 23 22 22 21 20 20
73 74 70 68 64 58 52 40 35 48 58 59 58 56 49 47 42 30 24 18 17 19 20 23 24 25 28 30 31 32 32 30 27 23 27 30 18 15 15 16 18 20 20
88 85 87 95 98 94 56 48 64 69 64 62 58 44 44 40 37 32 28 28 29 27 23 21 22 23 24 26 25 27 23 29 25 17 20 32 16 14 12 14 17 20 21
95 99 99 94 75 70 60 64 81 84 74 62 50 40 33 27 25 25 21 18 16 12 14 15 16 17 18 20 24 30 35 38 47 56 47 37 42 48 49 27 28 33 38
Wind_Speed
13 15 15 16 16 17 18 18 19 19 20 20 18 19 17 16 15 14 13 14 14 16 17 16 16 19 17 17 28 23 23 2 10 28 25 26 25 23 22 21 20 18 17
14 15 15 16 16 17 18 19 20 21 21 21 18 17 16 15 13 11 9 13 12 12 12 12 14 14 16 14 13 16 15 28 18 7 27 28 25 22 21 20 19 19 18
15 16 17 17 16 17 18 18 19 20 20 18 17 15 14 12 11 8 6 10 9 8 9 10 11 13 12 10 7 9 6 18 19 17 9 7 19 15 16 16 17 18 19
17 17 17 17 17 17 18 18 20 18 19 18 16 12 9 9 7 5 5 7 8 5 5 7 8 9 9 8 8 6 9 8 10 16 19 13 6 12 15 16 15 15 15
16 16 16 16 16 17 18 18 18 20 19 16 14 8 7 8 4 3 3 4 4 5 8 9 8 7 5 2 5 7 9 12 17 22 16 15 12 13 15 16 17 18 18
15 16 16 16 16 16 16 17 17 17 18 16 9 5 6 7 6 4 4 3 3 3 3 2 1 2 3 4 10 10 11 14 17 17 14 12 12 13 14 15 16 17 18
14 14 15 15 15 15 15 16 16 16 15 13 8 2 4 5 4 4 5 5 5 4 3 2 3 2 2 4 4 3 3 7 9 10 9 8 8 11 11 13 15 16 17
14 14 13 13 13 13 13 14 15 14 14 14 11 4 2 1 2 3 2 2 3 3 3 3 3 3 2 1 1 1 3 2 2 2 4 4 5 7 8 9 10 12 13
13 13 13 13 12 13 12 13 13 13 12 12 10 7 2 0 4 1 1 1 2 4 4 5 5 2 2 1 0 2 1 1 1 1 1 2 3 5 5 6 6 7 8
12 12 11 12 12 12 12 12 12 12 12 10 9 8 6 4 2 2 3 4 7 10 10 9 8 6 3 2 2 2 1 1 1 2 3 4 3 5 5 5 5 5 8
12 11 10 10 11 11 12 12 12 11 11 10 9 7 5 5 3 4 6 4 6 7 9 8 6 10 8 5 4 2 1 1 2 1 1 1 3 3 4 6 6 8 9
12 11 10 10 10 11 12 12 11 11 11 10 10 8 6 4 4 5 7 11 8 8 6 8 5 2 4 4 4 4 5 7 7 7 5 6 7 8 10 11 10 9 10
11 11 10 10 10 11 12 12 12 11 11 10 10 9 8 7 7 8 9 9 9 8 3 2 4 3 4 3 3 5 7 10 11 11 11 13 13 13 11 12 12 12 13
11 11 11 11 11 11 12 12 12 12 12 12 11 10 9 9 9 9 9 9 8 5 2 1 3 3 2 3 4 7 10 14 16 16 14 12 12 12 13 13 13 13 15
12 12 13 13 13 13 13 13 12 12 12 11 11 11 10 9 10 10 10 9 9 5 6 2 2 5 7 10 14 16 17 15 14 14 13 12 11 12 11 11 11 12 13
13 14 14 14 14 14 14 14 14 14 14 14 14 14 13 12 12 12 12 12 11 11 10 7 6 9 14 13 15 15 15 15 14 13 12 12 13 12 12 12 12 13 13
15 15 16 16 16 15 16 16 15 15 15 15 15 16 15 15 15 14 15 14 14 14 18 19 17 14 14 14 13 13 13 13 12 12 12 12 12 13 13 13 14 15 15
18 19 18 17 16 16 17 17 17 17 18 17 17 18 17 17 17 16 16 16 16 15 18 21 20 18 16 14 15 14 14 14 14 13 12 11 11 11 11 12 14 14 15
20 20 21 19 18 17 17 17 18 18 18 18 17 17 17 16 17 16 16 17 17 17 18 20 20 18 17 17 15 14 14 14 14 15 14 14 14 14 14 14 14 12 12
23 23 23 23 21 20 19 19 20 19 18 18 18 17 16 17 17 17 17 16 16 17 17 17 18 18 16 14 14 14 13 11 11 12 13 13 13 14 15 15 14 16 18
25 25 25 25 24 23 21 22 22 21 20 19 18 18 18 18 17 18 18 17 17 17 17 17 18 17 17 14 12 10 12 14 14 12 10 9 8 12 14 15 17 18 20
27 26 26 26 26 26 24 24 24 23 23 22 21 20 20 19 19 19 19 18 17 17 17 18 17 17 16 16 16 15 15 16 17 15 16 19 17 16 16 15 16 18 19
25 25 26 26 27 27 26 25 25 26 25 24 24 23 23 21 21 21 20 19 19 19 18 18 19 17 17 16 18 19 19 20 21 21 24 28 25 22 21 21 21 21 20
24 24 24 23 26 28 26 26 26 27 27 27 27 26 25 23 22 21 20 19 18 18 18 19 20 20 20 20 21 22 23 25 26 26 24 28 30 32 29 27 26 23 22
33 33 33 37 33 28 25 25 23 26 27 26 24 23 22 20 19 19 20 21 21 21 20 21 22 22 22 22 22 23 24 24 28 29 27 29 32 30 30 32 30 25 22
29 29 26 23 23 25 23 22 24 23 25 26 24 24 24 23 22 21 22 22 24 23 21 22 23 23 22 23 22 23 23 25 24 27 16 20 28 27 24 30 25 18 15
Wind_Direction
315 316 315 319 322 326 327 326 325 322 320 318 318 315 314 310 304 295 301 294 291 294 282 272 283 281 285 304 281 320 248 41 294 230 227 226 224 225 226 227 228 231 229
314 316 316 318 322 325 328 329 328 328 328 325 323 317 315 311 305 298 307 301 290 293 282 261 262 283 299 310 309 287 328 257 309 260 231 224 220 222 227 228 230 233 234
310 311 315 319 321 323 326 328 328 329 329 326 325 318 316 314 305 295 297 298 291 293 282 267 266 274 280 292 299 219 274 238 291 308 309 287 170 198 216 222 228 234 236
305 307 310 315 318 321 323 327 328 332 332 333 333 328 329 331 316 297 289 289 285 283 283 288 290 291 281 259 234 249 239 236 286 302 286 294 247 223 228 226 228 230 230
305 306 307 312 315 318 319 325 334 333 335 340 345 356 11 19 10 316 302 293 291 278 277 283 291 291 287 281 229 225 210 257 263 249 252 255 251 241 239 235 234 236 237
308 306 305 308 311 315 318 326 333 336 337 346 356 30 42 41 42 57 64 45 23 18 4 355 13 68 84 129 131 156 186 215 224 246 253 249 247 247 245 240 238 238 238
312 305 302 304 309 315 320 326 335 338 339 350 10 60 76 55 53 68 58 49 39 39 37 41 52 71 89 95 107 158 197 228 231 236 245 248 253 252 250 246 242 241 241
317 307 305 304 309 315 322 327 334 340 347 354 5 21 100 154 63 73 66 29 34 27 342 344 20 26 34 27 11 310 217 207 213 236 253 254 254 253 245 243 243 242 244
320 312 307 304 308 316 321 327 332 339 347 353 1 15 10 326 348 222 236 303 330 314 322 323 318 340 22 11 228 238 280 291 241 222 267 270 249 246 244 240 235 235 238
323 317 310 304 306 315 321 326 328 335 341 349 352 354 353 322 341 294 239 275 306 305 304 292 276 281 290 293 272 2 360 52 298 275 266 256 266 252 270 255 254 224 215
325 321 313 303 301 306 314 319 321 326 332 337 343 347 341 341 312 303 307 318 329 320 325 327 293 255 260 274 238 259 336 341 310 340 168 319 280 292 281 282 247 247 237
331 327 318 307 301 301 306 310 312 317 323 326 328 330 330 320 304 305 311 330 349 348 349 10 23 121 200 238 272 293 309 307 325 324 304 303 292 269 260 258 256 250 258
328 326 323 315 307 303 303 303 303 305 308 311 311 313 314 312 304 304 307 321 328 348 343 15 68 112 142 183 254 281 296 303 312 312 308 304 311 305 296 286 278 264 254
329 324 319 317 313 308 307 306 304 303 304 306 307 305 304 303 302 299 300 307 319 328 341 273 253 238 251 253 270 283 289 297 302 303 303 302 304 307 303 298 296 291 282
329 327 322 317 312 309 307 305 303 300 296 293 291 290 287 284 286 288 288 291 295 304 311 197 210 226 262 285 291 295 300 303 304 304 299 298 297 297 300 298 294 292 298
320 323 321 315 310 307 303 302 300 297 294 291 288 285 284 282 280 282 282 282 281 278 272 269 260 271 283 287 290 293 297 300 301 303 303 299 297 299 304 303 299 300 300
308 314 316 315 311 307 303 300 296 291 289 286 284 283 282 280 278 278 277 276 276 274 278 283 287 290 292 293 290 292 294 293 295 297 298 296 297 301 302 304 307 304 299
301 304 306 308 307 305 302 300 296 291 289 286 283 281 281 279 280 278 276 275 274 272 276 286 292 297 298 298 298 298 295 294 296 296 297 297 294 290 289 295 299 299 297
292 294 296 297 297 297 296 295 293 291 288 287 285 282 281 278 279 278 276 276 275 273 275 282 290 295 300 306 305 303 300 300 302 301 297 295 294 294 293 291 291 295 299
291 292 291 291 292 291 292 290 286 283 280 279 280 280 280 283 283 281 278 275 274 273 273 276 283 291 295 300 303 307 307 306 302 302 303 299 293 292 293 294 294 291 297
287 288 288 286 285 284 285 284 281 277 275 274 275 275 277 276 277 279 278 278 275 275 275 277 281 287 294 301 301 300 298 303 308 309 306 304 309 312 307 305 302 299 296
287 289 288 286 281 280 279 277 275 272 271 270 271 272 272 270 268 267 269 271 271 273 275 279 283 284 289 296 303 302 303 303 305 304 300 296 299 301 302 302 300 299 299
286 289 288 285 281 278 275 273 270 269 267 268 268 267 267 265 265 266 264 262 263 266 269 272 274 279 285 289 290 295 299 299 297 300 303 300 301 303 305 305 307 306 303
280 280 281 284 285 281 277 273 270 268 270 271 270 269 267 266 267 266 265 263 262 262 267 272 276 280 281 282 287 291 292 294 296 298 302 301 303 304 303 301 302 304 302
291 285 281 281 272 272 274 270 271 277 276 273 269 267 266 262 259 261 261 262 262 263 265 269 272 274 276 278 280 280 284 290 293 294 294 298 300 301 300 302 305 302 296
297 287 279 273 271 269 266 262 262 269 273 271 263 261 261 263 260 259 262 262 263 265 267 267 269 271 271 270 271 273 278 281 284 290 292 295 298 304 305 298 300 296 290